User: anonymous   Login
Location: Caltech
(34.1382°N, 118.1253°W)
Time: 04:19:14
(UTC-07:00)
Language:

SEDSat Delta rocket - Orbit

View from above orbital plane
View from above orbital plane
View from above satellite
View from above satellite

Ground track
Ground track

The orbit data is extracted from the following two-line orbital elements,

1 25510U 98061C   18172.41797760 +.00000085 +00000-0 +43303-5 0  9998
2 25510 031.4321 182.3247 0327669 115.7851 025.6425 14.37334096030475
Epoch (UTC): 21 June 2018 10:01:53
Eccentricity: 0.0327669
inclination: 31.4321°
perigee height: 533 km
apogee height: 1001 km
right ascension of ascending node: 182.3247°
argument of perigee: 115.7851°
revolutions per day: 14.37334096
mean anomaly at epoch: 25.6425°
orbit number at epoch: 3047

The dashed part of the orbit path shows where the satellite is in the earth's shadow,  

DLR